Regional Weather Roundup
Issued by NWS

Home | Current Version | Previous Version | Graphics & Text | Print | Product List | Glossary On
Versions: 1 2 3 4 5 6 7 8 9 10 11 12 13 14 15 16 17 18 19 20 21 22 23 24 25 26 27 28
000
ASUS45 KCYS 282310
RWRWY

WYOMING REGIONAL WEATHER ROUNDUP
NATIONAL WEATHER SERVICE CHEYENNE WY
500 PM MDT THU JUL 28 2016

NOTE:  "FAIR" INDICATES FEW OR NO CLOUDS BELOW 12,000 FEET
WITH NO SIGNIFICANT WEATHER AND/OR OBSTRUCTIONS TO VISIBILITY.

WYZ001-290000-
YELLOWSTONE NATIONAL PARK

CITY           SKY/WX    TMP DP  RH WIND       PRES   REMARKS
LK YELLOWSTONE   N/A     77  27  15 W9G20     30.35F
W YELLOWSTONE  NOT AVBL

$$
WYZ002>013-054>058-071-098>099-290000-
NORTHERN WYOMING

CITY           SKY/WX    TMP DP  RH WIND       PRES   REMARKS
JACKSON        SUNNY     82  25  12 NW8G17    30.23F
CODY           FAIR      77  52  41 NE12G20   30.19F
GREYBULL       FAIR      85  44  23 NW16G25   30.09F
WORLAND        FAIR      84  45  25 N6        30.10F
SHERIDAN       FAIR      81  46  29 N7        30.14F
BUFFALO        FAIR      77  50  38 N13       30.20F
GILLETTE       FAIR      75  54  47 N8        30.16F
HULETT         FAIR      73  50  43 NW10G16   30.18S
NEWCASTLE      FAIR      73  50  43 N12       30.17S

$$
WYZ014>020-022>026-101>103-290000-
CENTRAL WYOMING

CITY           SKY/WX    TMP DP  RH WIND       PRES   REMARKS
BIG PINEY      FAIR      86  27  11 NW14G26   30.25S
PINEDALE       FAIR      82  28  14 W14G26    30.26S
DUBOIS         FAIR      77  37  24 SE15      30.25F
LANDER         FAIR      85  45  24 NE14      30.14F
RIVERTON       FAIR      84  44  24 NE14G21   30.16F
CASPER         FAIR      82  45  27 E12       30.17F
DOUGLAS          N/A    N/A N/A N/A MISG      30.18F

$$
WYZ021-027>030-104>119-290000-
SOUTHERN WYOMING

CITY           SKY/WX    TMP DP  RH WIND       PRES   REMARKS
EVANSTON       FAIR      87  26  11 W21G30    30.28S
KEMMERER         N/A    N/A N/A N/A W21G31    30.28S
FORT BRIDGER   CLEAR     90  25   9 NW18G29   30.28S
ROCK SPRINGS   FAIR      89  20   8 W22G36    30.19F
DIXON          FAIR      87  30  13 SW7G18    30.20F
RAWLINS        FAIR      85  44  23 N12G22    30.21F
SARATOGA       FAIR      79  43  27 N14G31    30.24S
LARAMIE        PTSUNNY   71  53  52 SE16      30.28R
CHEYENNE       FAIR      72  53  51 SE9       30.23F
TORRINGTON     FAIR      81  50  33 S10       30.13F
PINE BLUFFS    FAIR      77  52  41 SE8       30.19S

$$




USA.gov is the U.S. government's official web portal to all federal, state and local government web resources and services.